sat.trackr.live / text

‹ back to catalog

SHENZHOU-23 (SZ-23)

NORAD 69180 · 2026-113A

PAYLOAD ACTIVE UNKNOWN

§ Identity

Operator
Country
PRC
Launch date
2026-05-24
Launch site
JSC
Launch vehicle
Mass (kg)
RCS (m²)

Purposes: station

External: N2YO · Heavens-Above · Gunter

§ Orbital elements

Epoch: 2026-09-19T21:33:17.772768Z

Period
92.30 min
Inclination
41.4679°
Eccentricity
0.0002586
Mean motion
15.60115363 rev/d
Perigee alt
385.6 km
Apogee alt
389.1 km
Semi-major
6,765.5 km
B*
1.8770e-4
RAAN
106.9413°
Arg perigee
292.0471°
Mean anomaly
68.0093°
Rev number
30,789

§ Raw data

SHENZHOU-23 (SZ-23)1 69180U 26113A   26262.89812237  .00015375  00000+0  18770-3 0  99912 69180  41.4679 106.9413 0002586 292.0471  68.0093 15.60115363307891

JSON: /api/v1/satellites/69180 · /tle

For live sub-satellite position, see the globe view (requires WebGL).

§ Visibility from observer

Set your observer location to see the next 7 days of passes ≥ 10°. The values pass through the URL so the page stays shareable.

No JS? Fill the form by hand. The geolocation button needs JavaScript.